User: anonymous   Login
Location: Croissy-Beaubourg
(48.8283°N, 2.6696°E)
Time: 04:36:10
(UTC+00:00)
Language:

IRIDIUM 33 DEB - Orbit

View from above orbital plane
View from above orbital plane
View from above satellite
View from above satellite

Ground track
Ground track

The orbit data is extracted from the following two-line orbital elements,

1 36497U 97051WP  23023.72971243  .00009039  00000-0  27563-2 0  9992
2 36497  86.1659  15.7802 0070652  38.9067  84.0464 14.40417386503802
Epoch (UTC): 23 January 2023 17:30:47
Eccentricity: 0.0070652
inclination: 86.1659°
perigee height: 707 km
apogee height: 807 km
right ascension of ascending node: 15.7802°
argument of perigee: 38.9067°
revolutions per day: 14.40417386
mean anomaly at epoch: 84.0464°
orbit number at epoch: 50380

The dashed part of the orbit path shows where the satellite is in the earth's shadow,  

DLR